Location: Crescent
(42.8242°N, 73.7329°W)
Time: 05:20:38
(UTC+00:00)

Explorer 7 - Pass Details

Date: 25 February 2026
Orbit: 430 x 542 km, 50.2° (Epoch: 5 March)

Event Time Altitude Azimuth Distance (km) Brightness Sun altitude
Rises 19:48:37 0° 290° (WNW) 2,424 10.4 26.7°
Reaches altitude 10° 19:51:00 10° 305° (NW) 1,568 9.4 26.4°
Maximum altitude 19:53:56 24° 1° (N) 984 7.9 26.0°
Drops below altitude 10° 19:56:57 10° 57° (ENE) 1,614 8.7 25.6°
Sets 19:59:26 0° 72° (ENE) 2,513 9.7 25.2°
